| time (UTC) | temp F | wind direction | speed MPH | gust MPH | rain 1hr in | rain 24hr in | rain mn in | humidity % | barometer mb |
| 20260831030820 | 59 | 120 | 2.0 | 4.0 | 0.00 | 0.00 | 0.00 | 91 | 1019.9 |
| 20260831024823 | 60 | 135 | 1.0 | 2.0 | 0.00 | 0.00 | 0.00 | 90 | 1019.7 |
| 20260831023851 | 60 | 135 | 0.0 | 1.0 | 0.00 | 0.00 | 0.00 | 90 | 1019.6 |
| 20260831022821 | 60 | 129 | 2.0 | 3.0 | 0.00 | 0.00 | 0.00 | 90 | 1019.6 |
| 20260831021821 | 61 | 119 | 4.0 | 6.0 | 0.00 | 0.00 | 0.00 | 89 | 1019.7 |
| 20260831015823 | 61 | 135 | 0.0 | 0.0 | 0.00 | 0.00 | 0.00 | 88 | 1019.5 |
| 20260831014921 | 61 | 135 | 2.0 | 4.0 | 0.00 | 0.00 | 0.00 | 88 | 1019.6 |
| 20260831014819 | 61 | 131 | 3.0 | 4.0 | 0.00 | 0.00 | 0.00 | 88 | 1019.5 |
| 20260831013822 | 61 | 131 | 2.0 | 3.0 | 0.00 | 0.00 | 0.00 | 86 | 1019.5 |
| 20260831010821 | 63 | 128 | 2.0 | 4.0 | 0.00 | 0.00 | 0.00 | 86 | 1019.7 |
| 20260831005823 | 63 | 130 | 4.0 | 6.0 | 0.00 | 0.00 | 0.00 | 84 | 1019.7 |
| 20260831004921 | 63 | 126 | 6.0 | 8.0 | 0.00 | 0.00 | 0.00 | 85 | 1020.0 |
| 20260831004020 | 63 | 135 | 3.0 | 4.0 | 0.00 | 0.00 | 0.00 | 85 | 1019.9 |
| 20260831003022 | 63 | 135 | 2.0 | 5.0 | 0.00 | 0.00 | 0.00 | 85 | 1020.1 |
| 20260831002920 | 63 | 135 | 3.0 | 5.0 | 0.00 | 0.00 | 0.00 | 85 | 1020.0 |
| 20260831001922 | 63 | 135 | 1.0 | 1.0 | 0.00 | 0.00 | 0.00 | 85 | 1019.9 |
| 20260831000922 | 62 | 135 | 2.0 | 3.0 | 0.00 | 0.00 | 0.00 | 86 | 1020.2 |
| 20260831000822 | 62 | 135 | 2.0 | 4.0 | 0.00 | 0.00 | 0.00 | 86 | 1020.3 |
| 20260830235822 | 62 | 126 | 2.0 | 4.0 | 0.00 | 0.00 | 0.00 | 86 | 1020.3 |
| 20260830234920 | 62 | 135 | 2.0 | 4.0 | 0.00 | 0.00 | 0.00 | 85 | 1020.2 |
| 20260830234821 | 62 | 135 | 1.0 | 3.0 | 0.00 | 0.00 | 0.00 | 85 | 1020.3 |
| 20260830233822 | 62 | 135 | 2.0 | 4.0 | 0.00 | 0.00 | 0.00 | 84 | 1020.3 |
| 20260830232820 | 62 | 135 | 2.0 | 3.0 | 0.00 | 0.00 | 0.00 | 83 | 1020.3 |
| 20260830231821 | 63 | 135 | 2.0 | 3.0 | 0.00 | 0.00 | 0.00 | 83 | 1020.1 |
| 20260830230821 | 63 | 135 | 2.0 | 3.0 | 0.00 | 0.00 | 0.00 | 83 | 1020.2 |
| 20260830225822 | 63 | 135 | 2.0 | 3.0 | 0.00 | 0.00 | 0.00 | 83 | 1020.3 |
| 20260830223920 | 63 | 135 | 2.0 | 4.0 | 0.00 | 0.00 | 0.00 | 81 | 1020.4 |
| 20260830223837 | 63 | 135 | 2.0 | 4.0 | 0.00 | 0.00 | 0.00 | 81 | 1020.4 |
| 20260830223722 | 64 | 135 | 2.0 | 4.0 | 0.00 | 0.00 | 0.00 | 81 | 1020.4 |
| 20260830222821 | 64 | 135 | 1.0 | 3.0 | 0.00 | 0.00 | 0.00 | 80 | 1020.6 |
| 20260830221822 | 64 | 135 | 2.0 | 3.0 | 0.00 | 0.00 | 0.00 | 80 | 1020.6 |
| 20260830215923 | 65 | 135 | 2.0 | 2.0 | 0.00 | 0.00 | 0.00 | 79 | 1020.6 |
| 20260830215823 | 65 | 135 | 2.0 | 3.0 | 0.00 | 0.00 | 0.00 | 79 | 1020.6 |
| 20260830214824 | 65 | 135 | 3.0 | 4.0 | 0.00 | 0.00 | 0.00 | 79 | 1020.8 |
| 20260830213822 | 65 | 135 | 1.0 | 4.0 | 0.00 | 0.00 | 0.00 | 78 | 1020.9 |
| 20260830213723 | 65 | 135 | 2.0 | 4.0 | 0.00 | 0.00 | 0.00 | 78 | 1020.9 |
| 20260830212821 | 65 | 135 | 3.0 | 4.0 | 0.00 | 0.00 | 0.00 | 78 | 1020.8 |
| 20260830211823 | 65 | 135 | 2.0 | 4.0 | 0.00 | 0.00 | 0.00 | 78 | 1021.0 |
| 20260830210824 | 65 | 135 | 2.0 | 3.0 | 0.00 | 0.00 | 0.00 | 77 | 1021.0 |
| 20260830205922 | 65 | 135 | 2.0 | 4.0 | 0.00 | 0.00 | 0.00 | 79 | 1021.0 |
| 20260830204923 | 64 | 119 | 3.0 | 4.0 | 0.00 | 0.00 | 0.00 | 79 | 1021.1 |
| 20260830203924 | 64 | 135 | 2.0 | 3.0 | 0.00 | 0.00 | 0.00 | 79 | 1021.1 |
| 20260830202924 | 64 | 135 | 2.0 | 3.0 | 0.00 | 0.00 | 0.00 | 79 | 1021.1 |
| 20260830202022 | 64 | 135 | 2.0 | 3.0 | 0.00 | 0.00 | 0.00 | 79 | 1021.2 |
| 20260830201025 | 64 | 135 | 3.0 | 4.0 | 0.00 | 0.00 | 0.00 | 79 | 1021.2 |
| 20260830200121 | 64 | 135 | 3.0 | 5.0 | 0.00 | 0.00 | 0.00 | 79 | 1021.4 |
| 20260830200024 | 64 | 135 | 3.0 | 4.0 | 0.00 | 0.00 | 0.00 | 79 | 1021.3 |
| 20260830195024 | 64 | 135 | 1.0 | 3.0 | 0.00 | 0.00 | 0.00 | 78 | 1021.3 |
| 20260830194123 | 65 | 135 | 2.0 | 3.0 | 0.00 | 0.00 | 0.00 | 77 | 1021.3 |
| 20260830193124 | 65 | 135 | 2.0 | 3.0 | 0.00 | 0.00 | 0.00 | 75 | 1021.4 |
| 20260830192222 | 66 | 135 | 3.0 | 4.0 | 0.00 | 0.00 | 0.00 | 74 | 1021.6 |
| 20260830191223 | 66 | 135 | 2.0 | 4.0 | 0.00 | 0.00 | 0.00 | 72 | 1021.6 |
| 20260830190224 | 66 | 135 | 2.0 | 4.0 | 0.00 | 0.00 | 0.00 | 72 | 1021.6 |
| 20260830185224 | 66 | 133 | 1.0 | 4.0 | 0.00 | 0.00 | 0.00 | 72 | 1021.6 |
| 20260830184224 | 67 | 130 | 3.0 | 4.0 | 0.00 | 0.00 | 0.00 | 70 | 1021.4 |
| 20260830184123 | 67 | 135 | 3.0 | 6.0 | 0.00 | 0.00 | 0.00 | 70 | 1021.5 |
| 20260830184024 | 67 | 135 | 3.0 | 5.0 | 0.00 | 0.00 | 0.00 | 71 | 1021.5 |
| 20260830183024 | 67 | 135 | 3.0 | 4.0 | 0.00 | 0.00 | 0.00 | 70 | 1021.5 |
| 20260830182122 | 67 | 135 | 2.0 | 4.0 | 0.00 | 0.00 | 0.00 | 69 | 1021.4 |
| 20260830181124 | 68 | 134 | 0.0 | 1.0 | 0.00 | 0.00 | 0.00 | 67 | 1021.4 |
| 20260830180123 | 68 | 132 | 3.0 | 5.0 | 0.00 | 0.00 | 0.00 | 66 | 1021.5 |
| 20260830180022 | 69 | 135 | 2.0 | 6.0 | 0.00 | 0.00 | 0.00 | 65 | 1021.6 |
| 20260830175025 | 69 | 122 | 1.0 | 3.0 | 0.00 | 0.00 | 0.00 | 65 | 1021.4 |
| 20260830174122 | 70 | 121 | 3.0 | 5.0 | 0.00 | 0.00 | 0.00 | 64 | 1021.5 |
| 20260830173123 | 70 | 134 | 3.0 | 4.0 | 0.00 | 0.00 | 0.00 | 64 | 1021.5 |
| 20260830173023 | 70 | 134 | 3.0 | 5.0 | 0.00 | 0.00 | 0.00 | 64 | 1021.6 |
| 20260830172024 | 70 | 134 | 2.0 | 5.0 | 0.00 | 0.00 | 0.00 | 63 | 1021.6 |
| 20260830170023 | 70 | 124 | 3.0 | 5.0 | 0.00 | 0.00 | 0.00 | 65 | 1021.7 |
| 20260830165122 | 70 | 141 | 5.0 | 9.0 | 0.00 | 0.00 | 0.00 | 67 | 1021.6 |
| 20260830164124 | 70 | 115 | 2.0 | 4.0 | 0.00 | 0.00 | 0.00 | 70 | 1021.8 |
| 20260830163122 | 71 | 123 | 2.0 | 4.0 | 0.00 | 0.00 | 0.00 | 72 | 1021.7 |
| 20260830162124 | 71 | 119 | 1.0 | 3.0 | 0.00 | 0.00 | 0.00 | 73 | 1021.9 |
| 20260830161125 | 72 | 180 | 2.0 | 3.0 | 0.00 | 0.00 | 0.00 | 72 | 1021.9 |
| 20260830160123 | 71 | 180 | 2.0 | 5.0 | 0.00 | 0.00 | 0.00 | 75 | 1021.9 |
| 20260830155122 | 70 | 180 | 1.0 | 2.0 | 0.00 | 0.00 | 0.00 | 76 | 1021.9 |
| 20260830154122 | 69 | 112 | 1.0 | 2.0 | 0.00 | 0.00 | 0.00 | 76 | 1021.8 |
| 20260830153222 | 69 | 115 | 2.0 | 4.0 | 0.00 | 0.00 | 0.00 | 75 | 1022.0 |
| 20260830152321 | 70 | 180 | 4.0 | 6.0 | 0.00 | 0.00 | 0.00 | 74 | 1022.0 |
| 20260830151324 | 70 | 180 | 5.0 | 6.0 | 0.00 | 0.00 | 0.00 | 73 | 1021.9 |
| 20260830150423 | 70 | 180 | 4.0 | 6.0 | 0.00 | 0.00 | 0.00 | 72 | 1022.0 |
| 20260830145423 | 71 | 180 | 2.0 | 5.0 | 0.00 | 0.00 | 0.00 | 70 | 1022.0 |
| 20260830144522 | 71 | 156 | 3.0 | 4.0 | 0.00 | 0.00 | 0.00 | 71 | 1022.1 |
| 20260830143524 | 70 | 180 | 3.0 | 4.0 | 0.00 | 0.00 | 0.00 | 70 | 1022.1 |
| 20260830143422 | 70 | 180 | 6.0 | 8.0 | 0.00 | 0.00 | 0.00 | 70 | 1022.1 |
| 20260830142423 | 70 | 114 | 3.0 | 7.0 | 0.00 | 0.00 | 0.00 | 69 | 1022.2 |
| 20260830140521 | 72 | 130 | 7.0 | 9.0 | 0.00 | 0.00 | 0.00 | 67 | 1022.0 |
| 20260830135524 | 72 | 119 | 4.0 | 8.0 | 0.00 | 0.00 | 0.00 | 67 | 1022.1 |
| 20260830134522 | 72 | 223 | 6.0 | 11.0 | 0.00 | 0.00 | 0.00 | 67 | 1021.9 |
| 20260830131523 | 71 | 184 | 9.0 | 17.0 | 0.00 | 0.00 | 0.00 | 68 | 1022.2 |
| 20260830130522 | 72 | 180 | 8.0 | 13.0 | 0.00 | 0.00 | 0.00 | 68 | 1022.1 |
| 20260830125523 | 72 | 204 | 9.0 | 15.0 | 0.00 | 0.00 | 0.00 | 68 | 1022.1 |
| 20260830124523 | 71 | 194 | 8.0 | 15.0 | 0.00 | 0.00 | 0.00 | 68 | 1022.0 |
| 20260830123522 | 72 | 179 | 8.0 | 13.0 | 0.00 | 0.00 | 0.00 | 67 | 1022.0 |
| 20260830122523 | 73 | 182 | 6.0 | 10.0 | 0.00 | 0.00 | 0.00 | 66 | 1021.9 |
| 20260830121421 | 74 | 177 | 8.0 | 13.0 | 0.00 | 0.00 | 0.00 | 66 | 1021.9 |
| 20260830120421 | 73 | 118 | 12.0 | 17.0 | 0.00 | 0.00 | 0.00 | 70 | 1021.7 |
| 20260830120323 | 72 | 133 | 11.0 | 17.0 | 0.00 | 0.00 | 0.00 | 71 | 1021.6 |
| 20260830115326 | 71 | 117 | 10.0 | 17.0 | 0.00 | 0.00 | 0.00 | 72 | 1021.8 |
| 20260830113423 | 70 | 128 | 4.0 | 6.0 | 0.00 | 0.00 | 0.00 | 73 | 1021.7 |
| 20260830112423 | 70 | 120 | 7.0 | 14.0 | 0.00 | 0.00 | 0.00 | 73 | 1021.6 |
| 20260830111421 | 70 | 121 | 6.0 | 12.0 | 0.00 | 0.00 | 0.00 | 74 | 1021.6 |
| 20260830110423 | 70 | 116 | 7.0 | 16.0 | 0.00 | 0.00 | 0.00 | 74 | 1021.5 |
| 20260830104422 | 69 | 116 | 7.0 | 12.0 | 0.00 | 0.00 | 0.00 | 76 | 1021.4 |
| 20260830102523 | 68 | 139 | 8.0 | 18.0 | 0.00 | 0.00 | 0.00 | 78 | 1021.3 |
| 20260830101523 | 67 | 131 | 6.0 | 12.0 | 0.00 | 0.00 | 0.00 | 80 | 1021.4 |
| 20260830100524 | 67 | 130 | 4.0 | 11.0 | 0.00 | 0.00 | 0.00 | 81 | 1021.4 |
| 20260830100422 | 67 | 150 | 7.0 | 12.0 | 0.00 | 0.00 | 0.00 | 81 | 1021.6 |
| 20260830095424 | 66 | 126 | 8.0 | 14.0 | 0.00 | 0.00 | 0.00 | 83 | 1021.3 |
| 20260830094424 | 66 | 134 | 3.0 | 6.0 | 0.00 | 0.00 | 0.00 | 84 | 1021.3 |
| 20260830093423 | 65 | 145 | 5.0 | 9.0 | 0.00 | 0.00 | 0.00 | 84 | 1021.3 |
| 20260830092522 | 65 | 139 | 4.0 | 9.0 | 0.00 | 0.00 | 0.00 | 85 | 1021.3 |
| 20260830091621 | 65 | 117 | 5.0 | 9.0 | 0.00 | 0.00 | 0.00 | 85 | 1021.1 |
| 20260830091524 | 65 | 114 | 7.0 | 13.0 | 0.00 | 0.00 | 0.00 | 85 | 1021.2 |
| 20260830090523 | 65 | 117 | 4.0 | 9.0 | 0.00 | 0.00 | 0.00 | 85 | 1021.1 |
| 20260830090423 | 65 | 127 | 3.0 | 9.0 | 0.00 | 0.00 | 0.00 | 85 | 1021.1 |
| 20260830085422 | 65 | 124 | 5.0 | 11.0 | 0.00 | 0.00 | 0.00 | 85 | 1020.8 |
| 20260830085323 | 64 | 126 | 6.0 | 10.0 | 0.00 | 0.00 | 0.00 | 85 | 1021.0 |
| 20260830083421 | 64 | 115 | 9.0 | 14.0 | 0.00 | 0.00 | 0.00 | 86 | 1020.8 |
| 20260830082424 | 64 | 124 | 4.0 | 7.0 | 0.00 | 0.00 | 0.00 | 87 | 1020.6 |
| 20260830081522 | 64 | 120 | 9.0 | 14.0 | 0.00 | 0.00 | 0.00 | 87 | 1020.6 |
| 20260830080621 | 63 | 133 | 5.0 | 9.0 | 0.00 | 0.00 | 0.00 | 88 | 1020.5 |
| 20260830080525 | 63 | 122 | 7.0 | 14.0 | 0.00 | 0.00 | 0.00 | 88 | 1020.6 |
| 20260830080423 | 63 | 112 | 7.0 | 11.0 | 0.00 | 0.00 | 0.00 | 88 | 1020.5 |
| 20260830075522 | 63 | 116 | 5.0 | 8.0 | 0.00 | 0.00 | 0.00 | 88 | 1020.4 |
| 20260830073523 | 63 | 117 | 10.0 | 15.0 | 0.00 | 0.00 | 0.00 | 85 | 1020.2 |
| 20260830072521 | 64 | 124 | 6.0 | 13.0 | 0.00 | 0.00 | 0.00 | 84 | 1020.0 |
| 20260830071522 | 64 | 118 | 6.0 | 11.0 | 0.00 | 0.00 | 0.00 | 84 | 1020.0 |
| 20260830070522 | 64 | 124 | 7.0 | 14.0 | 0.00 | 0.00 | 0.00 | 84 | 1019.7 |
| 20260830065524 | 64 | 113 | 9.0 | 16.0 | 0.00 | 0.00 | 0.00 | 84 | 1019.8 |
| 20260830064622 | 64 | 125 | 5.0 | 9.0 | 0.00 | 0.00 | 0.00 | 84 | 1019.6 |
| 20260830064522 | 64 | 114 | 6.0 | 12.0 | 0.00 | 0.00 | 0.00 | 84 | 1019.6 |
| 20260830063523 | 63 | 119 | 6.0 | 11.0 | 0.00 | 0.00 | 0.00 | 85 | 1019.5 |
| 20260830062621 | 63 | 114 | 5.0 | 14.0 | 0.00 | 0.00 | 0.00 | 85 | 1019.5 |
| 20260830061623 | 63 | 125 | 9.0 | 16.0 | 0.00 | 0.00 | 0.00 | 85 | 1019.4 |
| 20260830060622 | 63 | 116 | 6.0 | 12.0 | 0.00 | 0.00 | 0.00 | 85 | 1019.3 |
| 20260830055622 | 63 | 115 | 6.0 | 10.0 | 0.00 | 0.00 | 0.00 | 85 | 1019.1 |
| 20260830054623 | 63 | 116 | 4.0 | 6.0 | 0.00 | 0.00 | 0.00 | 85 | 1019.0 |
| 20260830054524 | 63 | 116 | 8.0 | 13.0 | 0.00 | 0.00 | 0.00 | 85 | 1019.2 |
| 20260830053522 | 63 | 116 | 5.0 | 8.0 | 0.00 | 0.00 | 0.00 | 85 | 1019.0 |
| 20260830051621 | 63 | 119 | 6.0 | 12.0 | 0.00 | 0.00 | 0.00 | 85 | 1018.7 |
| 20260830050621 | 63 | 135 | 5.0 | 9.0 | 0.00 | 0.00 | 0.00 | 85 | 1018.6 |
| 20260830045622 | 63 | 120 | 3.0 | 5.0 | 0.00 | 0.00 | 0.00 | 85 | 1018.6 |
| 20260830044623 | 63 | 118 | 5.0 | 11.0 | 0.00 | 0.00 | 0.00 | 85 | 1018.5 |
| 20260830043622 | 63 | 124 | 5.0 | 9.0 | 0.00 | 0.00 | 0.00 | 84 | 1018.5 |
| 20260830042623 | 63 | 125 | 6.0 | 9.0 | 0.00 | 0.00 | 0.00 | 84 | 1018.4 |
| 20260830042522 | 63 | 130 | 6.0 | 13.0 | 0.00 | 0.00 | 0.00 | 84 | 1018.4 |
| 20260830042423 | 63 | 120 | 9.0 | 13.0 | 0.00 | 0.00 | 0.00 | 84 | 1018.4 |
| 20260830035523 | 63 | 122 | 9.0 | 15.0 | 0.00 | 0.00 | 0.00 | 85 | 1018.3 |
| 20260830034524 | 63 | 144 | 4.0 | 11.0 | 0.00 | 0.00 | 0.00 | 85 | 1018.2 |
| 20260830033423 | 63 | 114 | 9.0 | 16.0 | 0.00 | 0.00 | 0.00 | 85 | 1018.2 |
| 20260830032423 | 63 | 115 | 8.0 | 13.0 | 0.00 | 0.00 | 0.00 | 85 | 1018.2 |